Winchester, VA

6:43 AM EDT on April 29, 2017 (GMT -0400)
Winchester Regional

Weather History for KOKV - January, 2013

Change the Weather History Date:

Saturday, January 12, 2013

  Actual Average Record
Temperature  
Mean Temperature 46 °F -  
Max Temperature 53 °F 40 °F 68 °F (2017)
Min Temperature 39 °F 24 °F 3 °F (1988)
Degree Days  
Heating Degree Days 19    
Moisture  
Dew Point 44 °F    
Average Humidity 99    
Maximum Humidity 100    
Minimum Humidity 88    
Precipitation  
Precipitation 0.00 in - - ()
Sea Level Pressure  
Sea Level Pressure 30.11 in    
Wind  
Wind Speed 1 mph (NNE)    
Max Wind Speed 6 mph    
Max Gust Speed -    
Visibility 3 miles    
Events Fog    
Averages and records for this station are not official NWS values.
T = Trace of Precipitation, MM = Missing Value Source: NWS Daily Summary

Daily Weather History Graph

Daily Weather History Graph

Search for Another Location

Airport or City:

Trip Planner

Search our weather history database for the weather conditions in past years. The results will help you decide how hot, cold, wet, or windy it might be!

Date:

Astronomy

Jan. 12, 2013 Rise Set
Actual Time 7:31 AM EST 5:11 PM EST
Civil Twilight 7:01 AM EST 5:40 PM EST
Nautical Twilight 6:28 AM EST 6:13 PM EST
Astronomical Twilight 5:56 AM EST 6:45 PM EST
Moon 7:49 AM EST (1/12) 6:36 PM EST (1/12)
Length of Visible Light 10h 38m
Length of Day
9h 40m
New Moon, 1% of the Moon is Illuminated
Jan 12
New Moon
Jan 18
First Quarter
Jan 26
Full
Feb 3
Last Quarter
Feb 10
New

Hourly Weather History & Observations

Time (EST) Temp. Windchill Dew Point Humidity Pressure Visibility Wind Dir Wind Speed Gust Speed Precip Events Conditions
12:15 AM 41.0 °F - 41.0 °F 100% 30.09 in 0.2 mi Calm Calm - N/A Fog Fog
12:35 AM 41.0 °F - 41.0 °F 100% 30.09 in 0.2 mi Calm Calm - N/A Fog Fog
12:55 AM 41.0 °F - 41.0 °F 100% 30.09 in 0.2 mi Calm Calm - N/A Fog Fog
1:15 AM 41.0 °F - 41.0 °F 100% 30.09 in 0.2 mi Calm Calm - N/A Fog Fog
1:35 AM 41.0 °F - 41.0 °F 100% 30.09 in 0.2 mi Calm Calm - N/A Fog Fog
1:55 AM 41.0 °F - 41.0 °F 100% 30.09 in 0.2 mi Calm Calm - N/A Fog Fog
2:35 AM 39.2 °F - 39.2 °F 100% 30.11 in 0.2 mi Calm Calm - N/A Fog Fog
2:55 AM 39.2 °F - 39.2 °F 100% 30.10 in 0.2 mi Calm Calm - N/A Fog Fog
3:15 AM 39.2 °F - 39.2 °F 100% 30.10 in 0.2 mi Calm Calm - N/A Fog Fog
3:35 AM 39.2 °F - 39.2 °F 100% 30.10 in 0.2 mi Calm Calm - N/A Fog Fog
3:55 AM 39.2 °F - 39.2 °F 100% 30.10 in 0.2 mi Calm Calm - N/A Fog Fog
4:15 AM 39.2 °F - 39.2 °F 100% 30.10 in 0.2 mi Calm Calm - N/A Fog Fog
4:35 AM 39.2 °F - 39.2 °F 100% 30.09 in 0.2 mi Calm Calm - N/A Fog Fog
4:55 AM 39.2 °F - 39.2 °F 100% 30.09 in 0.5 mi Calm Calm - N/A Fog Fog
5:15 AM 39.2 °F - 39.2 °F 100% 30.09 in 0.2 mi Calm Calm - N/A Fog Fog
5:35 AM 39.2 °F - 39.2 °F 100% 30.10 in 0.2 mi Calm Calm - N/A Fog Fog
5:55 AM 39.2 °F - 39.2 °F 100% 30.11 in 0.2 mi Calm Calm - N/A Fog Fog
6:15 AM 39.2 °F - 39.2 °F 100% 30.11 in 0.2 mi Calm Calm - N/A Fog Fog
6:35 AM 39.2 °F - 39.2 °F 100% 30.12 in 0.2 mi Calm Calm - N/A Fog Fog
6:55 AM 39.2 °F - 39.2 °F 100% 30.12 in 0.2 mi Calm Calm - N/A Fog Fog
7:15 AM 39.2 °F - 39.2 °F 100% 30.13 in 0.2 mi Calm Calm - N/A Fog Fog
7:35 AM 39.2 °F 37.0 °F 39.2 °F 100% 30.13 in 0.2 mi SE 3.5 mph - N/A Fog Fog
7:55 AM 39.2 °F - 39.2 °F 100% 30.14 in 0.2 mi Calm Calm - N/A Fog Fog
8:15 AM 39.2 °F - 39.2 °F 100% 30.15 in 0.2 mi Calm Calm - N/A Fog Fog
8:35 AM 39.2 °F - 39.2 °F 100% 30.15 in 0.5 mi Calm Calm - N/A Fog Fog
9:15 AM 41.0 °F - 41.0 °F 100% 30.14 in 1.8 mi Calm Calm - N/A   Overcast
9:35 AM 41.0 °F 39.0 °F 41.0 °F 100% 30.15 in 1.2 mi SW 3.5 mph - N/A   Overcast
9:55 AM 41.0 °F - 41.0 °F 100% 30.16 in 1.8 mi Calm Calm - N/A   Overcast
10:15 AM 41.0 °F - 41.0 °F 100% 30.16 in 0.8 mi Calm Calm - N/A   Overcast
10:35 AM 42.8 °F - 42.8 °F 100% 30.16 in 0.8 mi Calm Calm - N/A   Overcast
10:55 AM 42.8 °F - 42.8 °F 100% 30.15 in 0.5 mi Calm Calm - N/A Fog Fog
11:15 AM 42.8 °F - 42.8 °F 100% 30.15 in 1.2 mi Calm Calm - N/A   Overcast
11:35 AM 42.8 °F - 42.8 °F 100% 30.14 in 1.5 mi Calm Calm - N/A   Overcast
12:15 PM 44.6 °F - 44.6 °F 100% 30.13 in 2.5 mi Calm Calm - N/A   Overcast
12:35 PM 44.6 °F 43.1 °F 44.6 °F 100% 30.12 in 3.0 mi SE 3.5 mph - N/A   Overcast
12:55 PM 46.4 °F - 46.4 °F 100% 30.10 in 3.0 mi Calm Calm - N/A   Overcast
1:35 PM 46.4 °F - 46.4 °F 100% 30.09 in 5.0 mi Calm Calm - N/A   Mostly Cloudy
1:55 PM 50.0 °F - 50.0 °F 100% 30.09 in 5.0 mi Calm Calm - N/A   Scattered Clouds
2:15 PM 50.0 °F - 50.0 °F 100% 30.09 in 7.0 mi Calm Calm - N/A   Clear
2:35 PM 50.0 °F - 50.0 °F 100% 30.08 in 7.0 mi ESE 3.5 mph - N/A   Clear
2:55 PM 51.8 °F - 51.8 °F 100% 30.09 in 10.0 mi Calm Calm - N/A   Clear
3:15 PM 51.8 °F - 50.0 °F 94% 30.09 in 10.0 mi Calm Calm - N/A   Clear
3:35 PM 53.6 °F - 50.0 °F 88% 30.10 in 10.0 mi Calm Calm - N/A   Clear
3:55 PM 53.6 °F - 50.0 °F 88% 30.10 in 10.0 mi North 3.5 mph - N/A   Clear
4:15 PM 53.6 °F - 50.0 °F 88% 30.10 in 10.0 mi Calm Calm - N/A   Clear
4:35 PM 51.8 °F - 50.0 °F 94% 30.11 in 10.0 mi Calm Calm - N/A   Clear
4:55 PM 50.0 °F - 50.0 °F 100% 30.11 in 7.0 mi Calm Calm - N/A   Scattered Clouds
5:15 PM 48.2 °F - 46.4 °F 93% 30.11 in 7.0 mi Calm Calm - N/A   Clear
5:35 PM 48.2 °F - 48.2 °F 100% 30.11 in 7.0 mi Calm Calm - N/A   Clear
5:55 PM 46.4 °F - 46.4 °F 100% 30.10 in 7.0 mi Calm Calm - N/A   Scattered Clouds
6:15 PM 46.4 °F 45.2 °F 46.4 °F 100% 30.10 in 7.0 mi NW 3.5 mph - N/A   Clear
6:35 PM 46.4 °F 45.2 °F 46.4 °F 100% 30.10 in 5.0 mi North 3.5 mph - N/A   Clear
6:55 PM 48.2 °F - 46.4 °F 93% 30.10 in 7.0 mi Calm Calm - N/A   Clear
7:15 PM 44.6 °F 43.1 °F 44.6 °F 100% 30.10 in 5.0 mi NNW 3.5 mph - N/A   Scattered Clouds
7:35 PM 48.2 °F - 48.2 °F 100% 30.10 in 7.0 mi Calm Calm - N/A   Scattered Clouds
7:55 PM 46.4 °F - 46.4 °F 100% 30.10 in 5.0 mi Calm Calm - N/A   Overcast
8:15 PM 46.4 °F - 46.4 °F 100% 30.10 in 5.0 mi Calm Calm - N/A   Scattered Clouds
8:35 PM 44.6 °F - 44.6 °F 100% 30.09 in 5.0 mi Calm Calm - N/A   Clear
8:55 PM 46.4 °F 45.2 °F 46.4 °F 100% 30.10 in 5.0 mi North 3.5 mph - N/A   Clear
9:15 PM 46.4 °F 45.2 °F 46.4 °F 100% 30.10 in 5.0 mi North 3.5 mph - N/A   Clear
9:35 PM 46.4 °F 44.3 °F 46.4 °F 100% 30.10 in 5.0 mi North 4.6 mph - N/A   Clear
9:55 PM 46.4 °F 44.3 °F 46.4 °F 100% 30.09 in 5.0 mi NNE 4.6 mph - N/A   Clear
10:15 PM 46.4 °F 43.5 °F 46.4 °F 100% 30.08 in 5.0 mi NE 5.8 mph - N/A   Clear
10:35 PM 44.6 °F 43.1 °F 44.6 °F 100% 30.09 in 5.0 mi ENE 3.5 mph - N/A   Clear
10:55 PM 44.6 °F 42.2 °F 44.6 °F 100% 30.10 in 4.0 mi NNW 4.6 mph - N/A   Clear
11:15 PM 44.6 °F 43.1 °F 44.6 °F 100% 30.10 in 4.0 mi NNE 3.5 mph - N/A   Scattered Clouds
11:35 PM 44.6 °F 43.1 °F 44.6 °F 100% 30.08 in 4.0 mi NNE 3.5 mph - N/A   Scattered Clouds
11:55 PM 44.6 °F - 44.6 °F 100% 30.08 in 4.0 mi Calm Calm - N/A   Mostly Cloudy